• en Belgique
  • Liste des pays
  • À 7 jours
  • Température de l'eau
  • Carte satellitaire
  • Carte météo
  • Widgets météo
  • user-avatar
    Se connecter

    Météo par heure à Steniatyn

    Ce jour, 22 Septembre, Samedi

    Heure Température Précipitation Vent Pression Humidité
    00:00 +18°C° 0 mm 4 m/s 739 mmHg 72%
    01:00 +18°C° 0 mm 4 m/s 739 mmHg 72%
    02:00 +17°C° 0 mm 3 m/s 738 mmHg 73%
    03:00 +17°C° 0 mm 3 m/s 738 mmHg 71%
    04:00 +17°C° 0 mm 3 m/s 738 mmHg 70%
    05:00 +17°C° 0 mm 4 m/s 739 mmHg 69%
    06:00 +17°C° 0.1 mm 4 m/s 739 mmHg 72%
    07:00 +16°C° 0.1 mm 5 m/s 740 mmHg 75%
    08:00 +16°C° 0.1 mm 6 m/s 741 mmHg 77%
    09:00 +15°C° 0.4 mm 6 m/s 742 mmHg 80%
    10:00 +14°C° 0.4 mm 5 m/s 742 mmHg 82%
    11:00 +13°C° 0.4 mm 5 m/s 743 mmHg 84%
    12:00 +13°C° 0.6 mm 4 m/s 743 mmHg 84%
    13:00 +12°C° 0.6 mm 4 m/s 743 mmHg 84%
    14:00 +12°C° 0.6 mm 4 m/s 744 mmHg 85%
    15:00 +12°C° 0.3 mm 3 m/s 744 mmHg 83%
    16:00 +12°C° 0.3 mm 3 m/s 743 mmHg 82%
    17:00 +12°C° 0.3 mm 3 m/s 743 mmHg 81%
    18:00 +11°C° 0 mm 3 m/s 743 mmHg 83%
    19:00 +10°C° 0 mm 3 m/s 743 mmHg 86%
    20:00 +10°C° 0 mm 3 m/s 743 mmHg 88%
    21:00 +9°C° 0 mm 3 m/s 743 mmHg 87%
    22:00 +9°C° 0 mm 3 m/s 743 mmHg 86%
    23:00 +9°C° 0 mm 3 m/s 743 mmHg 84%

    Demain, 23 Septembre, Dimanche

    Heure Température Précipitation Vent Pression Humidité
    00:00 +9°C° 0 mm 3 m/s 743 mmHg 84%
    01:00 +9°C° 0 mm 3 m/s 743 mmHg 84%
    02:00 +9°C° 0 mm 3 m/s 743 mmHg 84%
    03:00 +9°C° 0 mm 3 m/s 743 mmHg 84%
    04:00 +9°C° 0 mm 3 m/s 743 mmHg 84%
    05:00 +9°C° 0 mm 3 m/s 743 mmHg 83%
    06:00 +10°C° 0 mm 3 m/s 743 mmHg 81%
    07:00 +10°C° 0 mm 4 m/s 743 mmHg 78%
    08:00 +11°C° 0 mm 4 m/s 743 mmHg 76%
    09:00 +13°C° 0 mm 4 m/s 743 mmHg 69%
    10:00 +14°C° 0 mm 5 m/s 743 mmHg 63%
    11:00 +16°C° 0 mm 5 m/s 743 mmHg 56%
    12:00 +16°C° 0.1 mm 5 m/s 743 mmHg 55%
    13:00 +16°C° 0.1 mm 5 m/s 742 mmHg 54%
    14:00 +17°C° 0.1 mm 5 m/s 742 mmHg 53%
    15:00 +17°C° 0 mm 4 m/s 741 mmHg 57%
    16:00 +17°C° 0 mm 3 m/s 741 mmHg 61%
    17:00 +16°C° 0 mm 2 m/s 741 mmHg 65%
    18:00 +16°C° 0.1 mm 2 m/s 740 mmHg 68%
    19:00 +15°C° 0.1 mm 2 m/s 740 mmHg 71%
    20:00 +14°C° 0.1 mm 2 m/s 739 mmHg 74%
    21:00 +13°C° 0.3 mm 3 m/s 738 mmHg 77%
    22:00 +13°C° 0.3 mm 3 m/s 737 mmHg 80%
    23:00 +12°C° 0.3 mm 4 m/s 736 mmHg 83%

    Après-demain, 24 Septembre, Lundi

    Heure Température Précipitation Vent Pression Humidité
    00:00 +13°C° 0.1 mm 5 m/s 735 mmHg 79%
    01:00 +12°C° 0.1 mm 7 m/s 733 mmHg 75%
    02:00 +13°C° 0.1 mm 8 m/s 731 mmHg 71%
    03:00 +13°C° 1.2 mm 9 m/s 730 mmHg 76%
    04:00 +15°C° 1.2 mm 9 m/s 730 mmHg 80%
    05:00 +16°C° 1.2 mm 10 m/s 729 mmHg 84%
    06:00 +13°C° 0.3 mm 11 m/s 729 mmHg 83%
    07:00 +12°C° 0.3 mm 12 m/s 730 mmHg 81%
    08:00 +10°C° 0.3 mm 12 m/s 731 mmHg 79%
    09:00 +9°C° 0.1 mm 11 m/s 733 mmHg 77%
    10:00 +9°C° 0.1 mm 10 m/s 735 mmHg 75%
    11:00 +8°C° 0.1 mm 9 m/s 737 mmHg 73%
    12:00 +10°C° 0.3 mm 9 m/s 738 mmHg 72%
    13:00 +10°C° 0.3 mm 9 m/s 739 mmHg 72%
    14:00 +11°C° 0.3 mm 9 m/s 740 mmHg 71%
    15:00 +10°C° 0.2 mm 9 m/s 740 mmHg 70%
    16:00 +10°C° 0.2 mm 8 m/s 740 mmHg 68%
    17:00 +10°C° 0.2 mm 8 m/s 741 mmHg 66%
    18:00 +9°C° 0 mm 8 m/s 741 mmHg 67%
    19:00 +8°C° 0 mm 7 m/s 742 mmHg 67%
    20:00 +7°C° 0 mm 6 m/s 742 mmHg 68%
    21:00 +6°C° 0 mm 7 m/s 742 mmHg 71%
    22:00 +6°C° 0 mm 7 m/s 743 mmHg 74%
    23:00 +6°C° 0 mm 7 m/s 743 mmHg 76%

    25 Septembre, Mardi

    Heure Température Précipitation Vent Pression Humidité
    00:00 +6°C° 0.1 mm 7 m/s 744 mmHg 75%
    01:00 +6°C° 0.1 mm 7 m/s 745 mmHg 74%
    02:00 +6°C° 0.1 mm 8 m/s 745 mmHg 73%
    03:00 +5°C° 0 mm 7 m/s 746 mmHg 74%
    04:00 +5°C° 0 mm 7 m/s 747 mmHg 75%
    05:00 +4°C° 0 mm 6 m/s 747 mmHg 76%
    06:00 +4°C° 0 mm 6 m/s 748 mmHg 74%
    07:00 +5°C° 0 mm 7 m/s 748 mmHg 72%
    08:00 +5°C° 0 mm 7 m/s 749 mmHg 69%
    09:00 +6°C° 0 mm 7 m/s 750 mmHg 64%
    10:00 +7°C° 0 mm 8 m/s 750 mmHg 59%
    11:00 +9°C° 0 mm 8 m/s 750 mmHg 53%
    12:00 +10°C° 0.2 mm 8 m/s 751 mmHg 53%
    13:00 +10°C° 0.2 mm 8 m/s 751 mmHg 52%
    14:00 +10°C° 0.2 mm 8 m/s 751 mmHg 51%
    15:00 +10°C° 0.1 mm 7 m/s 751 mmHg 53%
    16:00 +10°C° 0.1 mm 7 m/s 752 mmHg 55%
    17:00 +9°C° 0.1 mm 6 m/s 752 mmHg 57%
    18:00 +8°C° 0 mm 6 m/s 753 mmHg 59%
    19:00 +7°C° 0 mm 5 m/s 753 mmHg 61%
    20:00 +6°C° 0 mm 4 m/s 754 mmHg 63%
    21:00 +6°C° 0 mm 4 m/s 754 mmHg 64%
    22:00 +5°C° 0 mm 4 m/s 755 mmHg 65%
    23:00 +5°C° 0 mm 3 m/s 755 mmHg 67%

    26 Septembre, Mercredi

    Heure Température Précipitation Vent Pression Humidité
    00:00 +4°C° 0 mm 3 m/s 755 mmHg 68%
    01:00 +4°C° 0 mm 3 m/s 755 mmHg 69%
    02:00 +4°C° 0 mm 3 m/s 756 mmHg 71%
    03:00 +3°C° 0 mm 3 m/s 756 mmHg 71%
    04:00 +3°C° 0 mm 3 m/s 755 mmHg 72%
    05:00 +3°C° 0 mm 3 m/s 755 mmHg 72%
    06:00 +4°C° 0 mm 4 m/s 755 mmHg 70%
    07:00 +5°C° 0 mm 4 m/s 755 mmHg 69%
    08:00 +5°C° 0 mm 5 m/s 755 mmHg 68%
    09:00 +7°C° 0 mm 5 m/s 755 mmHg 62%
    10:00 +9°C° 0 mm 5 m/s 755 mmHg 56%
    11:00 +10°C° 0 mm 6 m/s 755 mmHg 50%
    12:00 +11°C° 0 mm 6 m/s 754 mmHg 48%
    13:00 +13°C° 0 mm 6 m/s 754 mmHg 46%
    14:00 +13°C° 0 mm 6 m/s 753 mmHg 45%
    15:00 +13°C° 0 mm 5 m/s 753 mmHg 47%
    16:00 +12°C° 0 mm 5 m/s 752 mmHg 49%
    17:00 +12°C° 0 mm 4 m/s 751 mmHg 51%
    18:00 +11°C° 0 mm 4 m/s 751 mmHg 52%
    19:00 +11°C° 0 mm 4 m/s 751 mmHg 52%
    20:00 +10°C° 0 mm 4 m/s 751 mmHg 52%
    21:00 +10°C° 0 mm 4 m/s 750 mmHg 52%
    22:00 +9°C° 0 mm 5 m/s 750 mmHg 52%
    23:00 +9°C° 0 mm 5 m/s 750 mmHg 52%

    27 Septembre, Jeudi

    Heure Température Précipitation Vent Pression Humidité
    00:00 +9°C° 0 mm 5 m/s 750 mmHg 52%
    01:00 +9°C° 0 mm 5 m/s 749 mmHg 52%
    02:00 +9°C° 0 mm 6 m/s 749 mmHg 52%
    03:00 +9°C° 0 mm 6 m/s 749 mmHg 52%
    04:00 +8°C° 0 mm 6 m/s 748 mmHg 53%
    05:00 +8°C° 0 mm 5 m/s 748 mmHg 53%
    06:00 +8°C° 0 mm 6 m/s 747 mmHg 53%
    07:00 +8°C° 0 mm 6 m/s 747 mmHg 54%
    08:00 +8°C° 0 mm 6 m/s 747 mmHg 54%
    09:00 +10°C° 0 mm 7 m/s 747 mmHg 51%
    10:00 +12°C° 0 mm 7 m/s 747 mmHg 48%
    11:00 +15°C° 0 mm 7 m/s 746 mmHg 45%
    12:00 +16°C° 0 mm 7 m/s 746 mmHg 44%
    13:00 +16°C° 0 mm 7 m/s 745 mmHg 43%
    14:00 +17°C° 0 mm 7 m/s 745 mmHg 41%
    15:00 +17°C° 0 mm 6 m/s 744 mmHg 44%
    16:00 +16°C° 0 mm 6 m/s 743 mmHg 47%
    17:00 +16°C° 0 mm 5 m/s 743 mmHg 50%
    18:00 +15°C° 0 mm 6 m/s 743 mmHg 50%
    19:00 +14°C° 0 mm 6 m/s 742 mmHg 50%
    20:00 +11°C° 0 mm 6 m/s 742 mmHg 50%
    21:00 +11°C° 0 mm 6 m/s 742 mmHg 50%
    22:00 +11°C° 0 mm 6 m/s 742 mmHg 50%
    23:00 +11°C° 0 mm 6 m/s 742 mmHg 50%
    Voir plus